Location: Perryvale
(54.4667°N, 113.3833°W)
Time: 21:36:54
(UTC+00:00)

Transit 2A - Pass Details

Date: 25 May 2024
Orbit: 592 x 959 km, 66.7° (Epoch: 19 June)

Event Time Altitude Azimuth Distance (km) Brightness Sun altitude
Exits shadow 06:25:36 - 222° (SW) 2,799 8.6 -13.2°
Reaches altitude 10° 06:27:21 10° 222° (SW) 2,108 8.0 -13.3°
Maximum altitude 06:32:09 86° 312° (NW) 736 5.9 -13.4°
Drops below altitude 10° 06:37:32 10° 42° (NE) 2,359 9.0 -13.6°
Sets 06:40:06 0° 43° (NE) 3,354 9.8 -13.7°
